Location: Molino di Ancona
(43.6167°N, 13.3667°E)
Time: 02:19:40
(UTC+00:00)

Cosmos 968 Rocket - Pass Details

Date: 15 December 2019
Orbit: 742 x 770 km, 74.0° (Epoch: 20 January)

Event Time Altitude Azimuth Distance (km) Brightness Sun altitude
Exits shadow 05:22:00 - 343° (NNW) 3,036 6.2 -12.3°
Reaches altitude 10° 05:23:59 10° 347° (NNW) 2,276 5.6 -11.9°
Maximum altitude 05:29:03 57° 66° (ENE) 877 4.1 -11.1°
Drops below altitude 10° 05:34:04 10° 145° (SE) 2,249 6.9 -10.2°
Sets 05:36:26 0° 150° (SSE) 3,167 7.6 -9.8°
